Weather History for Pascagoula, MS

Change the Weather History Date:

Saturday, December 17, 2011

  Actual Average Record
Temperature  
Mean Temperature 48 °F -  
Max Temperature 61 °F 61 °F 75 °F (1967)
Min Temperature 34 °F 41 °F 23 °F (1989)
Degree Days  
Heating Degree Days 17    
Moisture  
Dew Point 46 °F    
Average Humidity 80    
Maximum Humidity 94    
Minimum Humidity 46    
Precipitation  
Precipitation 0.00 in - - ()
Sea Level Pressure  
Sea Level Pressure 30.31 in    
Wind  
Wind Speed 9 mph (North)    
Max Wind Speed 16 mph    
Max Gust Speed 22 mph    
Visibility 10 miles    
Events Rain    
Averages and records for this station are not official NWS values.
T = Trace of Precipitation, MM = Missing Value Source: NWS Daily Summary

Daily Weather History Graph

Daily Weather History Graph

Search for Another Location

Airport:

Trip Planner

Search our weather history database for the weather conditions in past years. The results will help you decide how hot, cold, wet, or windy it might be!

Date:

Astronomy

Dec. 17, 2011 Rise Set
Actual Time 6:44 AM CST 4:55 PM CST
Civil Twilight 6:18 AM CST 5:22 PM CST
Nautical Twilight 5:48 AM CST 5:52 PM CST
Astronomical Twilight 5:18 AM CST 6:21 PM CST
Moon No Moon Rise 11:26 AM CST (12/17)
Length of Visible Light 11h 04m
Length of Day
10h 11m
Waning Gibbous, 53% of the Moon is Illuminated
Dec 17
Waning Gibbous
Dec 17
Last Quarter
Dec 24
New
Jan 1
First Quarter
Jan 9
Full

Hourly Weather History & Observations

Time (CST) Temp. Dew Point Humidity Pressure Visibility Wind Dir Wind Speed Gust Speed Precip Events Conditions
12:25 AM 57.2 °F 53.6 °F 88% 30.24 in 10.0 mi North 9.2 mph - N/A   Overcast
12:53 AM 57.9 °F 54.0 °F 87% 30.25 in 9.0 mi North 6.9 mph - 0.00 in Rain Light Rain
1:13 AM 57.2 °F 53.6 °F 88% 30.24 in 10.0 mi North 5.8 mph - 0.00 in   Overcast
1:53 AM 57.0 °F 52.0 °F 83% 30.24 in 10.0 mi North 10.4 mph - 0.00 in   Overcast
2:01 AM 57.2 °F 51.8 °F 82% 30.23 in 10.0 mi North 9.2 mph - N/A   Overcast
2:08 AM 57.2 °F 51.8 °F 82% 30.24 in 10.0 mi North 10.4 mph - N/A   Overcast
2:17 AM 57.2 °F 51.8 °F 82% 30.23 in 10.0 mi North 9.2 mph - N/A   Overcast
2:53 AM 57.0 °F 51.1 °F 81% 30.25 in 10.0 mi North 12.7 mph - N/A   Overcast
3:53 AM 54.0 °F 52.0 °F 93% 30.27 in 8.0 mi North 10.4 mph - 0.00 in Rain Light Rain
4:11 AM 53.6 °F 51.8 °F 94% 30.26 in 10.0 mi North 8.1 mph - N/A   Overcast
4:53 AM 54.0 °F 51.1 °F 90% 30.28 in 10.0 mi North 8.1 mph - N/A   Overcast
5:46 AM 53.6 °F 50.0 °F 88% 30.29 in 10.0 mi North 11.5 mph - N/A   Overcast
5:53 AM 54.0 °F 50.0 °F 86% 30.29 in 10.0 mi North 15.0 mph - N/A   Overcast
6:53 AM 52.0 °F 48.9 °F 89% 30.32 in 10.0 mi North 11.5 mph - N/A   Overcast
7:53 AM 52.0 °F 48.0 °F 86% 30.34 in 10.0 mi North 9.2 mph - N/A   Overcast
8:23 AM 53.6 °F 48.2 °F 82% 30.34 in 10.0 mi NNW 10.4 mph - N/A   Overcast
8:53 AM 52.0 °F 48.0 °F 86% 30.35 in 10.0 mi NNW 9.2 mph - N/A   Overcast
9:00 AM 51.8 °F 48.2 °F 88% 30.35 in 10.0 mi North 8.1 mph - N/A   Overcast
9:38 AM 51.8 °F 46.4 °F 82% 30.36 in 10.0 mi North 12.7 mph - N/A   Overcast
9:53 AM 52.0 °F 46.0 °F 80% 30.37 in 10.0 mi NNW 11.5 mph - N/A   Overcast
10:53 AM 52.0 °F 46.0 °F 80% 30.37 in 10.0 mi North 12.7 mph - N/A   Overcast
11:53 AM 55.9 °F 44.1 °F 64% 30.34 in 10.0 mi North 15.0 mph 21.9 mph N/A   Partly Cloudy
12:53 PM 59.0 °F 42.1 °F 53% 30.30 in 10.0 mi North 13.8 mph 19.6 mph N/A   Clear
1:53 PM 61.0 °F 41.0 °F 48% 30.29 in 10.0 mi North 16.1 mph - N/A   Clear
2:53 PM 60.1 °F 39.0 °F 46% 30.28 in 10.0 mi North 13.8 mph - N/A   Clear
3:53 PM 59.0 °F 37.9 °F 46% 30.29 in 10.0 mi North 9.2 mph - N/A   Clear
4:53 PM 53.1 °F 37.0 °F 55% 30.31 in 10.0 mi North 6.9 mph - N/A   Clear
6:53 PM 46.0 °F 37.9 °F 73% 30.36 in 10.0 mi Calm Calm - N/A   Clear
7:53 PM 41.0 °F 37.9 °F 89% 30.38 in 10.0 mi Calm Calm - N/A   Clear
8:53 PM 37.9 °F 36.0 °F 93% 30.39 in 10.0 mi Calm Calm - N/A   Clear
9:53 PM 35.1 °F 33.1 °F 92% 30.40 in 10.0 mi Calm Calm - N/A   Clear
10:53 PM 37.0 °F 34.0 °F 89% 30.40 in 10.0 mi Calm Calm - N/A   Clear
11:53 PM 34.0 °F 32.0 °F 92% 30.39 in 10.0 mi Calm Calm - N/A   Clear